Time,TemperatureF,DewpointF,PressureIn,WindDirection,WindDirectionDegrees,WindSpeedMPH,WindSpeedGustMPH,Humidity,HourlyPrecipIn,Conditions,Clouds,dailyrainin,SoftwareType,DateUTC
2013-08-29 00:05:00,79.1,68.0,29.89,South,191,5.0,9.0,69,0.00,,,0.00,weatherlink.com 1.10,2013-08-29 05:05:00,
2013-08-29 00:20:00,78.9,68.0,29.89,South,190,0.0,9.0,69,0.00,,,0.00,weatherlink.com 1.10,2013-08-29 05:20:00,
2013-08-29 00:35:00,78.8,68.0,29.89,SSE,162,4.0,9.0,69,0.00,,,0.00,weatherlink.com 1.10,2013-08-29 05:35:00,
2013-08-29 00:50:00,79.0,68.0,29.90,SSW,213,8.0,8.0,69,0.00,,,0.00,weatherlink.com 1.10,2013-08-29 05:50:00,
2013-08-29 01:05:00,78.5,68.0,29.90,South,188,7.0,10.0,70,0.00,,,0.00,weatherlink.com 1.10,2013-08-29 06:05:00,
2013-08-29 01:20:00,77.8,68.0,29.90,South,175,3.0,9.0,71,0.00,,,0.00,weatherlink.com 1.10,2013-08-29 06:20:00,
2013-08-29 01:35:00,77.3,68.0,29.90,SSW,209,4.0,8.0,72,0.00,,,0.00,weatherlink.com 1.10,2013-08-29 06:35:00,
2013-08-29 01:50:00,77.3,67.0,29.90,South,188,4.0,7.0,71,0.00,,,0.00,weatherlink.com 1.10,2013-08-29 06:50:00,
2013-08-29 02:05:00,77.3,67.0,29.89,SSW,195,4.0,9.0,71,0.00,,,0.00,weatherlink.com 1.10,2013-08-29 07:05:00,
2013-08-29 02:20:00,77.1,67.0,29.89,SSW,200,1.0,12.0,72,0.00,,,0.00,weatherlink.com 1.10,2013-08-29 07:20:00,
2013-08-29 02:35:00,77.0,67.0,29.89,South,182,5.0,10.0,72,0.00,,,0.00,weatherlink.com 1.10,2013-08-29 07:35:00,
2013-08-29 02:50:00,76.7,67.0,29.89,South,181,5.0,12.0,73,0.00,,,0.00,weatherlink.com 1.10,2013-08-29 07:50:00,
2013-08-29 03:06:00,76.6,67.0,29.90,SSW,199,6.0,9.0,73,0.00,,,0.00,weatherlink.com 1.10,2013-08-29 08:06:00,
2013-08-29 03:21:00,75.8,67.0,29.89,South,180,1.0,10.0,75,0.00,,,0.00,weatherlink.com 1.10,2013-08-29 08:21:00,
2013-08-29 03:36:00,75.6,68.0,29.89,SSW,202,0.0,7.0,76,0.00,,,0.00,weatherlink.com 1.10,2013-08-29 08:36:00,
2013-08-29 03:51:00,74.8,68.0,29.89,SSW,206,2.0,7.0,78,0.00,,,0.00,weatherlink.com 1.10,2013-08-29 08:51:00,
2013-08-29 04:06:00,74.5,68.0,29.89,South,191,0.0,7.0,79,0.00,,,0.00,weatherlink.com 1.10,2013-08-29 09:06:00,
2013-08-29 04:21:00,74.9,68.0,29.89,South,177,0.0,7.0,79,0.00,,,0.00,weatherlink.com 1.10,2013-08-29 09:21:00,
2013-08-29 04:36:00,74.6,68.0,29.88,South,182,4.0,8.0,80,0.00,,,0.00,weatherlink.com 1.10,2013-08-29 09:36:00,
2013-08-29 04:51:00,75.0,68.0,29.88,South,176,3.0,9.0,80,0.00,,,0.00,weatherlink.com 1.10,2013-08-29 09:51:00,
2013-08-29 05:06:00,74.8,68.0,29.89,South,184,3.0,11.0,80,0.00,,,0.00,weatherlink.com 1.10,2013-08-29 10:06:00,
2013-08-29 05:21:00,74.4,68.0,29.89,South,190,3.0,7.0,81,0.00,,,0.00,weatherlink.com 1.10,2013-08-29 10:21:00,
2013-08-29 05:36:00,74.5,68.0,29.89,South,169,2.0,10.0,81,0.00,,,0.00,weatherlink.com 1.10,2013-08-29 10:36:00,
2013-08-29 05:51:00,74.5,69.0,29.89,South,182,6.0,10.0,82,0.00,,,0.00,weatherlink.com 1.10,2013-08-29 10:51:00,
2013-08-29 06:06:00,74.4,69.0,29.89,SSW,196,0.0,8.0,82,0.00,,,0.00,weatherlink.com 1.10,2013-08-29 11:06:00,
2013-08-29 06:21:00,74.4,69.0,29.89,South,190,0.0,10.0,83,0.00,,,0.00,weatherlink.com 1.10,2013-08-29 11:21:00,
2013-08-29 06:37:00,73.5,68.0,29.89,South,179,0.0,0.0,84,0.00,,,0.00,weatherlink.com 1.10,2013-08-29 11:37:00,
2013-08-29 06:51:00,72.2,68.0,29.90,South,179,0.0,0.0,86,0.00,,,0.00,weatherlink.com 1.10,2013-08-29 11:51:00,
2013-08-29 07:06:00,71.0,67.0,29.90,South,179,0.0,0.0,88,0.00,,,0.00,weatherlink.com 1.10,2013-08-29 12:06:00,
2013-08-29 07:21:00,70.4,67.0,29.90,SE,134,0.0,1.0,90,0.00,,,0.00,weatherlink.com 1.10,2013-08-29 12:21:00,
2013-08-29 07:36:00,70.4,68.0,29.90,SE,134,2.0,4.0,91,0.00,,,0.00,weatherlink.com 1.10,2013-08-29 12:36:00,
2013-08-29 07:51:00,71.1,68.0,29.90,SE,126,3.0,5.0,91,0.00,,,0.00,weatherlink.com 1.10,2013-08-29 12:51:00,
2013-08-29 08:06:00,72.7,69.0,29.90,ESE,111,7.0,10.0,89,0.00,,,0.00,weatherlink.com 1.10,2013-08-29 13:06:00,
2013-08-29 08:21:00,74.2,71.0,29.90,SE,125,2.0,8.0,88,0.00,,,0.00,weatherlink.com 1.10,2013-08-29 13:21:00,
2013-08-29 08:36:00,76.6,72.0,29.91,SSE,161,1.0,6.0,84,0.00,,,0.00,weatherlink.com 1.10,2013-08-29 13:36:00,
2013-08-29 08:51:00,78.0,72.0,29.90,SE,134,2.0,6.0,82,0.00,,,0.00,weatherlink.com 1.10,2013-08-29 13:51:00,
2013-08-29 09:06:00,79.1,72.0,29.90,SSE,161,1.0,6.0,80,0.00,,,0.00,weatherlink.com 1.10,2013-08-29 14:06:00,
2013-08-29 09:21:00,80.5,73.0,29.90,SE,141,4.0,7.0,78,0.00,,,0.00,weatherlink.com 1.10,2013-08-29 14:21:00,
2013-08-29 09:36:00,81.1,73.0,29.89,ESE,116,0.0,7.0,77,0.00,,,0.00,weatherlink.com 1.10,2013-08-29 14:36:00,
2013-08-29 09:51:00,82.1,74.0,29.90,SSE,161,3.0,6.0,76,0.00,,,0.00,weatherlink.com 1.10,2013-08-29 14:51:00,
2013-08-29 10:06:00,83.2,75.0,29.89,SE,132,1.0,7.0,75,0.00,,,0.00,weatherlink.com 1.10,2013-08-29 15:06:00,
2013-08-29 10:21:00,83.9,74.0,29.89,ESE,121,3.0,8.0,73,0.00,,,0.00,weatherlink.com 1.10,2013-08-29 15:21:00,
2013-08-29 10:36:00,84.5,75.0,29.89,ESE,117,3.0,9.0,73,0.00,,,0.00,weatherlink.com 1.10,2013-08-29 15:36:00,
2013-08-29 10:52:00,86.3,75.0,29.89,SE,136,1.0,7.0,70,0.00,,,0.00,weatherlink.com 1.10,2013-08-29 15:52:00,
2013-08-29 11:07:00,86.8,75.0,29.89,East,96,6.0,8.0,68,0.00,,,0.00,weatherlink.com 1.10,2013-08-29 16:07:00,
2013-08-29 11:22:00,86.3,75.0,29.89,SE,128,5.0,10.0,69,0.00,,,0.00,weatherlink.com 1.10,2013-08-29 16:22:00,
2013-08-29 11:37:00,87.3,75.0,29.89,South,189,4.0,9.0,67,0.00,,,0.00,weatherlink.com 1.10,2013-08-29 16:37:00,
2013-08-29 11:52:00,88.5,75.0,29.88,SSE,157,5.0,12.0,64,0.00,,,0.00,weatherlink.com 1.10,2013-08-29 16:52:00,
2013-08-29 12:07:00,88.0,74.0,29.88,ESE,123,7.0,11.0,64,0.00,,,0.00,weatherlink.com 1.10,2013-08-29 17:07:00,
2013-08-29 12:22:00,89.1,75.0,29.88,SE,140,9.0,11.0,63,0.00,,,0.00,weatherlink.com 1.10,2013-08-29 17:22:00,
2013-08-29 12:37:00,89.9,74.0,29.86,South,186,3.0,14.0,59,0.00,,,0.00,weatherlink.com 1.10,2013-08-29 17:37:00,
2013-08-29 12:52:00,90.0,73.0,29.86,SE,128,5.0,14.0,57,0.00,,,0.00,weatherlink.com 1.10,2013-08-29 17:52:00,
2013-08-29 13:07:00,91.3,73.0,29.85,SSE,148,9.0,11.0,55,0.00,,,0.00,weatherlink.com 1.10,2013-08-29 18:07:00,
2013-08-29 13:22:00,91.6,70.0,29.84,SSW,210,7.0,15.0,49,0.00,,,0.00,weatherlink.com 1.10,2013-08-29 18:22:00,
2013-08-29 13:37:00,92.0,72.0,29.84,ESE,123,8.0,14.0,52,0.00,,,0.00,weatherlink.com 1.10,2013-08-29 18:37:00,
2013-08-29 13:52:00,91.9,72.0,29.84,SSE,167,8.0,14.0,52,0.00,,,0.00,weatherlink.com 1.10,2013-08-29 18:52:00,
2013-08-29 14:07:00,91.8,73.0,29.83,SE,138,6.0,14.0,54,0.00,,,0.00,weatherlink.com 1.10,2013-08-29 19:07:00,
2013-08-29 14:22:00,92.5,72.0,29.83,SSE,153,8.0,13.0,52,0.00,,,0.00,weatherlink.com 1.10,2013-08-29 19:22:00,
2013-08-29 14:37:00,92.6,72.0,29.83,SE,128,10.0,15.0,51,0.00,,,0.00,weatherlink.com 1.10,2013-08-29 19:37:00,
2013-08-29 14:52:00,93.0,72.0,29.82,South,190,12.0,15.0,51,0.00,,,0.00,weatherlink.com 1.10,2013-08-29 19:52:00,
2013-08-29 15:07:00,93.7,73.0,29.82,SE,135,3.0,13.0,51,0.00,,,0.00,weatherlink.com 1.10,2013-08-29 20:07:00,
2013-08-29 15:22:00,93.9,73.0,29.82,South,188,10.0,15.0,51,0.00,,,0.00,weatherlink.com 1.10,2013-08-29 20:22:00,
2013-08-29 15:37:00,94.5,73.0,29.81,SSE,165,2.0,13.0,50,0.00,,,0.00,weatherlink.com 1.10,2013-08-29 20:37:00,
2013-08-29 15:52:00,94.7,73.0,29.81,South,178,4.0,12.0,49,0.00,,,0.00,weatherlink.com 1.10,2013-08-29 20:52:00,
2013-08-29 16:07:00,94.9,72.0,29.81,South,185,6.0,11.0,48,0.00,,,0.00,weatherlink.com 1.10,2013-08-29 21:07:00,
2013-08-29 16:22:00,94.6,72.0,29.81,SSE,162,5.0,13.0,48,0.00,,,0.00,weatherlink.com 1.10,2013-08-29 21:22:00,
2013-08-29 16:37:00,95.2,73.0,29.80,SW,215,1.0,12.0,48,0.00,,,0.00,weatherlink.com 1.10,2013-08-29 21:37:00,
2013-08-29 16:52:00,95.0,72.0,29.80,SSE,148,10.0,11.0,47,0.00,,,0.00,weatherlink.com 1.10,2013-08-29 21:52:00,
2013-08-29 17:07:00,95.3,72.0,29.80,SSE,159,4.0,12.0,47,0.00,,,0.00,weatherlink.com 1.10,2013-08-29 22:07:00,
2013-08-29 17:22:00,94.7,73.0,29.80,South,184,3.0,14.0,49,0.00,,,0.00,weatherlink.com 1.10,2013-08-29 22:22:00,
2013-08-29 17:37:00,95.3,73.0,29.80,SSW,201,3.0,8.0,49,0.00,,,0.00,weatherlink.com 1.10,2013-08-29 22:37:00,
2013-08-29 17:52:00,94.7,73.0,29.80,South,182,4.0,8.0,50,0.00,,,0.00,weatherlink.com 1.10,2013-08-29 22:52:00,
2013-08-29 18:07:00,94.2,73.0,29.79,South,175,4.0,8.0,50,0.00,,,0.00,weatherlink.com 1.10,2013-08-29 23:07:00,
2013-08-29 18:22:00,94.0,73.0,29.79,SSW,202,2.0,9.0,51,0.00,,,0.00,weatherlink.com 1.10,2013-08-29 23:22:00,
2013-08-29 18:37:00,93.4,73.0,29.79,South,175,7.0,9.0,52,0.00,,,0.00,weatherlink.com 1.10,2013-08-29 23:37:00,
2013-08-29 18:52:00,92.7,74.0,29.79,South,171,8.0,9.0,54,0.00,,,0.00,weatherlink.com 1.10,2013-08-29 23:52:00,
2013-08-29 19:07:00,91.8,74.0,29.79,South,174,4.0,8.0,56,0.00,,,0.00,weatherlink.com 1.10,2013-08-30 00:07:00,
2013-08-29 19:22:00,91.1,73.0,29.79,South,181,0.0,8.0,56,0.00,,,0.00,weatherlink.com 1.10,2013-08-30 00:22:00,
2013-08-29 19:37:00,89.7,73.0,29.79,SE,144,2.0,7.0,59,0.00,,,0.00,weatherlink.com 1.10,2013-08-30 00:37:00,
2013-08-29 19:52:00,88.6,73.0,29.79,SSE,156,5.0,7.0,61,0.00,,,0.00,weatherlink.com 1.10,2013-08-30 00:52:00,
2013-08-29 20:08:00,87.9,73.0,29.79,SE,136,5.0,8.0,62,0.00,,,0.00,weatherlink.com 1.10,2013-08-30 01:08:00,
2013-08-29 20:23:00,86.9,73.0,29.79,SE,142,7.0,8.0,64,0.00,,,0.00,weatherlink.com 1.10,2013-08-30 01:23:00,
2013-08-29 20:38:00,86.1,74.0,29.80,ESE,121,4.0,9.0,67,0.00,,,0.00,weatherlink.com 1.10,2013-08-30 01:38:00,
2013-08-29 20:53:00,85.7,74.0,29.80,SSE,150,2.0,11.0,69,0.00,,,0.00,weatherlink.com 1.10,2013-08-30 01:53:00,
2013-08-29 21:08:00,85.7,75.0,29.80,SSE,157,2.0,11.0,70,0.00,,,0.00,weatherlink.com 1.10,2013-08-30 02:08:00,
2013-08-29 21:23:00,85.7,75.0,29.80,South,188,6.0,9.0,70,0.00,,,0.00,weatherlink.com 1.10,2013-08-30 02:23:00,
2013-08-29 21:38:00,85.4,75.0,29.80,SSE,165,5.0,10.0,71,0.00,,,0.00,weatherlink.com 1.10,2013-08-30 02:38:00,
2013-08-29 21:53:00,85.0,75.0,29.80,SSE,165,7.0,10.0,72,0.00,,,0.00,weatherlink.com 1.10,2013-08-30 02:53:00,
2013-08-29 22:08:00,84.5,75.0,29.80,South,173,5.0,10.0,73,0.00,,,0.00,weatherlink.com 1.10,2013-08-30 03:08:00,
2013-08-29 22:23:00,84.3,75.0,29.80,South,182,8.0,11.0,74,0.00,,,0.00,weatherlink.com 1.10,2013-08-30 03:23:00,
2013-08-29 22:38:00,84.1,75.0,29.80,SSE,153,7.0,14.0,74,0.00,,,0.00,weatherlink.com 1.10,2013-08-30 03:38:00,
2013-08-29 22:53:00,84.1,75.0,29.80,SSW,211,11.0,13.0,73,0.00,,,0.00,weatherlink.com 1.10,2013-08-30 03:53:00,
2013-08-29 23:08:00,84.0,75.0,29.79,South,171,7.0,14.0,73,0.00,,,0.00,weatherlink.com 1.10,2013-08-30 04:08:00,
2013-08-29 23:23:00,83.6,75.0,29.79,SSE,162,8.0,14.0,74,0.00,,,0.00,weatherlink.com 1.10,2013-08-30 04:23:00,
2013-08-29 23:38:00,83.1,74.0,29.79,SSW,194,11.0,14.0,75,0.00,,,0.00,weatherlink.com 1.10,2013-08-30 04:38:00,
2013-08-29 23:53:00,82.6,74.0,29.79,South,172,9.0,15.0,76,0.00,,,0.00,weatherlink.com 1.10,2013-08-30 04:53:00,